TimeCST,TemperatureF,Dew PointF,Humidity,Sea Level PressureIn,VisibilityMPH,Wind Direction,Wind SpeedMPH,Gust SpeedMPH,PrecipitationIn,Events,Conditions,WindDirDegrees,DateUTC
12:15 AM,37.4,23.0,56,30.01,10.0,SSE,13.8,-,N/A,,Overcast,150,2013-01-27 06:15:00
12:35 AM,37.8,23.0,55,30.00,10.0,SSE,12.7,-,N/A,,Overcast,150,2013-01-27 06:35:00
12:55 AM,37.9,23.0,55,29.99,10.0,SSE,9.2,-,N/A,,Overcast,150,2013-01-27 06:55:00
1:15 AM,38.3,23.2,55,29.98,10.0,SSE,12.7,-,N/A,,Overcast,160,2013-01-27 07:15:00
1:35 AM,37.6,26.4,64,29.98,10.0,South,11.5,-,N/A,Rain,Light Rain,170,2013-01-27 07:35:00
1:55 AM,37.4,28.9,71,29.99,7.0,South,12.7,-,N/A,Rain,Light Rain,170,2013-01-27 07:55:00
2:15 AM,36.7,30.9,80,29.99,5.0,South,11.5,-,0.01,Rain,Light Rain,170,2013-01-27 08:15:00
2:35 AM,35.8,32.0,86,29.99,4.0,South,6.9,-,0.05,Rain,Light Rain,170,2013-01-27 08:35:00
2:55 AM,35.8,34.0,93,29.98,4.0,SSE,10.4,-,0.08,Rain,Rain,160,2013-01-27 08:55:00
3:15 AM,36.0,35.1,97,29.98,3.0,Calm,Calm,-,0.04,Rain,Rain,0,2013-01-27 09:15:00
3:35 AM,36.0,35.6,99,29.96,3.0,SSE,9.2,-,0.09,Rain,Rain,160,2013-01-27 09:35:00
3:55 AM,35.8,35.6,99,29.95,3.0,SSE,9.2,-,0.13,Rain,Rain,150,2013-01-27 09:55:00
4:15 AM,36.0,35.8,99,29.95,5.0,SSE,10.4,-,N/A,,Overcast,150,2013-01-27 10:15:00
4:35 AM,36.1,36.1,100,29.93,5.0,SE,6.9,-,N/A,,Overcast,140,2013-01-27 10:35:00
4:55 AM,36.1,36.0,99,29.93,5.0,Calm,Calm,-,N/A,,Overcast,0,2013-01-27 10:55:00
5:15 AM,36.0,36.0,100,29.91,4.0,Calm,Calm,-,N/A,,Overcast,0,2013-01-27 11:15:00
5:35 AM,36.1,36.1,100,29.90,5.0,SE,12.7,-,N/A,,Overcast,140,2013-01-27 11:35:00
6:15 AM,36.5,36.5,100,29.89,7.0,SE,11.5,-,N/A,,Scattered Clouds,140,2013-01-27 12:15:00
6:35 AM,36.9,36.5,99,29.88,10.0,SE,10.4,-,N/A,,Mostly Cloudy,140,2013-01-27 12:35:00
6:55 AM,37.0,36.7,99,29.87,5.0,SE,11.5,-,N/A,Rain,Rain,140,2013-01-27 12:55:00
7:15 AM,36.9,36.7,99,29.87,5.0,SSE,10.4,-,0.01,Rain,Light Rain,150,2013-01-27 13:15:00
7:35 AM,36.9,36.9,100,29.88,5.0,SSE,9.2,-,0.03,Rain,Rain,150,2013-01-27 13:35:00
7:55 AM,36.9,36.9,100,29.87,5.0,SSE,11.5,16.1,0.04,,Drizzle,150,2013-01-27 13:55:00
8:15 AM,37.0,37.0,100,29.85,4.0,SSE,11.5,-,0.01,Rain,Light Rain,150,2013-01-27 14:15:00
8:35 AM,37.4,37.4,100,29.86,4.0,SSE,9.2,-,0.02,Rain,Light Rain,160,2013-01-27 14:35:00
8:55 AM,37.4,37.4,100,29.84,4.0,SSE,10.4,-,0.02,Rain,Rain,150,2013-01-27 14:55:00
9:15 AM,37.4,37.4,100,29.85,4.0,SSE,9.2,-,0.01,Rain,Light Rain,160,2013-01-27 15:15:00
9:35 AM,37.9,37.9,100,29.83,4.0,SSE,11.5,-,0.01,,Overcast,150,2013-01-27 15:35:00
9:55 AM,38.5,38.5,100,29.83,1.2,SSE,11.5,17.3,0.01,,Overcast,150,2013-01-27 15:55:00
10:15 AM,38.7,38.7,100,29.82,1.0,SSE,11.5,16.1,N/A,,Overcast,150,2013-01-27 16:15:00
10:35 AM,39.2,39.2,100,29.82,1.0,SSE,12.7,-,N/A,,Overcast,160,2013-01-27 16:35:00
10:55 AM,39.4,39.4,100,29.81,1.0,SSE,12.7,-,N/A,,Overcast,160,2013-01-27 16:55:00
11:15 AM,39.7,39.7,100,29.81,1.0,SSE,11.5,-,N/A,,Overcast,160,2013-01-27 17:15:00
11:35 AM,40.3,40.3,100,29.79,1.0,SSE,11.5,18.4,N/A,,Overcast,150,2013-01-27 17:35:00
11:55 AM,41.0,41.0,100,29.78,1.2,SSE,10.4,-,N/A,,Overcast,160,2013-01-27 17:55:00
12:15 PM,41.7,41.7,100,29.77,1.2,SSE,11.5,-,N/A,,Overcast,160,2013-01-27 18:15:00
12:35 PM,42.1,42.1,100,29.76,1.2,South,11.5,17.3,N/A,,Overcast,170,2013-01-27 18:35:00
12:55 PM,42.4,42.4,100,29.75,1.2,South,9.2,-,N/A,,Overcast,170,2013-01-27 18:55:00
1:15 PM,42.8,42.8,100,29.73,1.0,South,10.4,16.1,N/A,Rain,Light Rain,170,2013-01-27 19:15:00
1:35 PM,43.2,43.2,100,29.72,0.8,South,9.2,-,N/A,Rain,Light Rain,170,2013-01-27 19:35:00
1:55 PM,43.5,43.5,100,29.71,0.5,SSE,4.6,-,N/A,,Light Drizzle,160,2013-01-27 19:55:00
2:15 PM,43.7,43.7,100,29.70,0.2,SSE,8.1,-,N/A,Rain,Light Rain,160,2013-01-27 20:15:00
2:35 PM,43.9,43.9,100,29.70,0.2,SSE,8.1,-,N/A,Rain,Light Rain,160,2013-01-27 20:35:00
2:55 PM,44.4,44.4,100,29.69,0.2,Calm,Calm,-,N/A,Rain,Light Rain,0,2013-01-27 20:55:00
3:15 PM,44.6,44.6,100,29.69,0.2,SSE,6.9,-,N/A,Fog,Fog,150,2013-01-27 21:15:00
3:35 PM,44.6,44.6,100,29.69,0.2,Calm,Calm,-,0.01,Fog,Fog,0,2013-01-27 21:35:00
3:55 PM,44.6,44.6,100,29.69,0.2,Calm,Calm,-,0.01,Fog,Fog,0,2013-01-27 21:55:00
4:15 PM,44.6,44.6,100,29.68,0.2,Calm,Calm,-,N/A,Fog,Fog,0,2013-01-27 22:15:00
4:35 PM,44.2,44.2,100,29.69,0.2,Calm,Calm,-,N/A,Fog,Fog,0,2013-01-27 22:35:00
4:55 PM,44.1,44.1,100,29.69,0.2,Calm,Calm,-,N/A,Fog,Fog,0,2013-01-27 22:55:00
5:15 PM,44.4,44.4,100,29.69,0.2,Calm,Calm,-,N/A,Fog,Fog,0,2013-01-27 23:15:00
5:35 PM,44.2,44.2,100,29.69,0.2,Calm,Calm,-,N/A,Fog,Fog,0,2013-01-27 23:35:00
5:55 PM,44.6,44.6,100,29.69,0.2,Calm,Calm,-,N/A,,Drizzle,0,2013-01-27 23:55:00
6:15 PM,45.3,45.3,100,29.70,0.2,Calm,Calm,-,N/A,,Drizzle,0,2013-01-28 00:15:00
6:35 PM,45.9,45.9,100,29.71,0.5,Calm,Calm,-,N/A,Fog,Fog,0,2013-01-28 00:35:00
6:55 PM,45.9,45.9,100,29.72,0.5,Calm,Calm,-,N/A,Fog,Fog,0,2013-01-28 00:55:00
7:15 PM,43.9,43.9,100,29.73,0.5,Calm,Calm,-,N/A,Fog,Fog,0,2013-01-28 01:15:00
7:35 PM,43.3,43.3,100,29.74,1.0,Calm,Calm,-,N/A,,Overcast,0,2013-01-28 01:35:00
7:55 PM,44.1,44.1,100,29.74,4.0,Calm,Calm,-,N/A,,Overcast,0,2013-01-28 01:55:00
8:15 PM,44.2,44.2,100,29.74,4.0,Calm,Calm,-,N/A,,Overcast,0,2013-01-28 02:15:00
8:35 PM,44.2,44.2,100,29.75,4.0,West,10.4,-,N/A,,Overcast,280,2013-01-28 02:35:00
8:55 PM,43.5,43.5,100,29.76,0.8,West,11.5,-,N/A,,Overcast,280,2013-01-28 02:55:00
9:15 PM,43.0,43.0,100,29.77,0.8,WNW,10.4,-,N/A,,Overcast,290,2013-01-28 03:15:00
9:35 PM,42.3,42.3,100,29.79,2.0,WNW,11.5,-,N/A,,Overcast,290,2013-01-28 03:35:00
9:55 PM,41.5,41.5,100,29.79,3.0,WNW,11.5,-,N/A,,Overcast,290,2013-01-28 03:55:00
10:15 PM,40.3,40.3,100,29.79,5.0,WNW,11.5,-,N/A,,Scattered Clouds,300,2013-01-28 04:15:00
10:35 PM,39.2,39.2,100,29.79,5.0,Calm,Calm,-,N/A,,Scattered Clouds,0,2013-01-28 04:35:00
10:55 PM,38.3,38.3,100,29.80,5.0,WNW,9.2,-,N/A,,Scattered Clouds,300,2013-01-28 04:55:00
11:15 PM,39.2,39.2,100,29.81,5.0,NW,12.7,16.1,N/A,,Mostly Cloudy,310,2013-01-28 05:15:00
11:35 PM,38.7,38.7,100,29.82,1.2,NW,8.1,-,N/A,,Overcast,310,2013-01-28 05:35:00
11:55 PM,38.3,38.3,100,29.82,0.5,Calm,Calm,-,N/A,Fog,Fog,0,2013-01-28 05:55:00